一网星座-0177星 (ONEWEB-0177 )

导读 | 星芒AI

ONEWEB-0177 是 OneWeb 卫星通信公司发射的低轨通信卫星之一,属于其全球宽带互联网星座计划。该卫星运行在约 1200 公里的近地轨道,旨在为全球偏远地区提供高速互联网服务。作为 OneWeb 星座的重要组成部分,它支持政府、航空、海运及企业用户的连接需求。该卫星采用模块化设计,具备高容量通信能力,助力实现 OneWeb 提供全球覆盖、低延迟通信的目标。

基本信息
目录编号:
48074
目录名称:
ONEWEB-0177
国际标识:
2021-025AJ
轨道中心:
EARTH
卫星名称:
一网星座-0177星
卫星全名:
一网星座-0177星 (ONEWEB-0177 )
卫星状态:
在轨 (已飞行1726 天)
发射日期:
2021-03-25 UTC
国别 :
英国 (GB)
星等 :
--
轨道信息
数据来源 国际轨道数据 AOE轨道数据
星历时间 2025-12-15T07:26:18+0800
19小时前
查看轨道信息
2025-12-13T21:00:00+0800
2天前
查看轨道信息
半长轴 7587.899km 7587.889km
偏心率 0.0001536 0.0001334
轨道倾角 87.898° 87.902°
近地点辐角 92.451° 91.007°
升交点赤经 356.828° 357.114°
平近点角 267.680° 327.936°
近地点 1208.598km 1208.741km
远地点 1210.93km 1210.767km
周期 109.633分钟 109.633分钟
每日圈数 13.134711 13.134737
详细信息
平衡模式:
三轴稳定
覆盖范围:
全球
运营商:
一网卫星公司
运营商所在国:
英国
制造商(研发单位):
一网卫星公司
制造商所在国:
英国
使用方式:
暂无
卫星简介
OneWeb卫星网络由648颗重约125公斤的微型卫星组成,运行在1200公里的轨道上。 每颗卫星都能够提供至少每秒8千兆位的吞吐量,以使用其高吞吐量的Ku频段有效载荷为家庭和移动平台提供互联网接入。该卫星仍在工作。
2D轨道图
3D轨道图
轨道高度分析图
轨道倾角分析图
轨道综合分析图
查看轨道综合分析图